Find Kuiper-00145

NORAD ID: 65767 Int'l Des: 2025-217 Owner: KUIP Country: US Constellation: kuiper operational
LEOCIRCULAR

Live Position

Loading 3D Globe...

About Kuiper-00145

Description loading...

Upcoming Passes

Passes for default location (London). Set your location on the main map for personalized predictions.

Altitude History

Loading altitude history...

Two-Line Element Set

1 65767U 25217F 26107.31573196 .00002322 00000-0 33342-3 0 9996
2 65767 51.9008 227.3007 0000447 106.2706 253.8305 14.79941509 30664
Epoch: Apr 17, 2026 • Age: 9 hours

Current Status

Altitude 635.1 km
Velocity 7.55 km/s
Sub-Earth Point 50.89°N, 115.62°W
Launch Date Sep 25, 2025
Age 0.5 years
Type internet

Technical Details

Classification Payload
Mass 490.00 kg
Dry Mass 490.00 kg
Total Mass 490.00 kg
Length 1.80 m
Diameter 0.70 m
Span 5.00 m
Shape Box + 2 pan
Manufacturer KUIP
Bus Type Kuiper
Phase Status In Orbit
Owner/State KUIP/US

Most Searched